Tracking 19832 objects as of 24-Aug-2019
HD Live streaming from Space Station
objects crossing your sky now

MOLNIYA 2-14

Track MOLNIYA 2-14 now!
MOLNIYA 2-14 is classified as:


NORAD ID: 8195
Int'l Code: 1975-081A
Perigee: 436.9 km
Apogee: 39,673.0 km
Inclination: 62.8 °
Period: 712.5 minutes
Semi major axis: 26425 km
RCS: 17.1549 m2 (large)
Launch date: September 9, 1975
Source: Commonwealth of Independent States (former USSR) (CIS)
Launch site: PLESETSK MISSILE AND SPACE COMPLEX (PKMTR)
aabbcc
Your satellite tracking list
Your tracking list is empty




NASA's NSSDC Master Catalog

Two Line Element Set (TLE):
1  8195U 75081A   19235.37636179 +.00001078 +00000-0 +81587-4 0  9995
2  8195 062.7853 324.5730 7423784 290.5945 008.8550 02.02095839322112
Source of the keplerian elements: AFSPC